Home   Weather   Wittenberge   Past weeks

Flag for Germany Past Weather in Wittenberge, Mecklenburg-Western Pomerania, Germany — Yesterday and Last 2 Weeks

Now
55 °F

Passing clouds.


Feels Like: 53 °F
Forecast: 51 / 65 °F
Wind: 9 mph from West

Location: Fassberg

Current Time: Sep 30, 2016 at 1:51:09 AM

Latest Report: Sep 30, 2016 at 12:20 AM


Visibility: N/A

Pressure: 29.86 "Hg

Humidity: 94%

Dew Point: 54 °F

Location of WittenbergeLocation

Past Weather in Wittenberge — Graph

°F

Wittenberge Temperature Yesterday

Maximum temperature yesterday: 73 °F (at 2:20 PM)
Minimum temperature yesterday: 55 °F (at 10:47 PM)
Average temperature yesterday: 65 °F

High & Low Weather Summary for the Past Weeks

 TemperatureHumidityPressure
High81 °F (Sep 15, 3:20 PM)100% (Sep 21, 8:20 PM)30.30 "Hg (Sep 21, 8:20 PM)
Low39 °F (Sep 24, 6:45 AM)32% (Sep 15, 3:20 PM)29.83 "Hg (Sep 29, 3:20 PM)
Average59 °F74%30.09 "Hg
* Reported Sep 15 12:00 AM — Sep 30 12:20 AM, Wittenberge, Weather by CustomWeather, © 2016

Note: Actual official high and low records may vary slightly from our data, if they occured in-between our weather recording intervals... More about our weather records

Advertising

Wittenberge Weather History for the Previous 24 Hours

Scroll right to see more
 ConditionsComfort  
Time TempWeatherWind HumidityBarometerVisibility
12:20 AM
Fri, Sep 30
55 °FPassing clouds.9 mph94%29.86 "HgN/A
11:20 PM
Thu, Sep 29
55 °FPartly cloudy.12 mph94%29.86 "HgN/A
10:47 PM55 °FPartly cloudy.13 mph94%29.86 "Hg3 mi
10:20 PM57 °FDrizzle. Fog.12 mph88%29.86 "Hg3 mi
9:48 PM57 °FDrizzle. Fog.18 mph94%29.86 "Hg2 mi
9:20 PM64 °FPassing clouds.18 mph73%29.83 "HgN/A
8:20 PM68 °FPassing clouds.21 mph60%29.83 "HgN/A
7:20 PM68 °FPassing clouds.18 mph60%29.83 "HgN/A
6:20 PM68 °FBroken clouds.18 mph56%29.83 "HgN/A
5:20 PM70 °FPartly sunny.16 mph57%29.83 "HgN/A
4:20 PM73 °FBroken clouds.25 mph47%29.83 "HgN/A
3:20 PM73 °FBroken clouds.22 mph44%29.83 "HgN/A
2:20 PM73 °FBroken clouds.21 mph44%29.86 "HgN/A
1:20 PM72 °FBroken clouds.23 mph47%29.86 "HgN/A
12:20 PM72 °FPartly sunny.23 mph47%29.89 "HgN/A
11:20 AM68 °FBroken clouds.21 mph49%29.92 "HgN/A
10:20 AM68 °FPartly sunny.22 mph49%29.95 "HgN/A
9:20 AM66 °FPartly sunny.14 mph52%29.98 "HgN/A
8:20 AM66 °FPartly sunny.14 mph52%29.98 "HgN/A
7:20 AM64 °FPartly sunny.14 mph64%30.01 "HgN/A
6:20 AM64 °FPassing clouds.14 mph68%30.01 "HgN/A
5:20 AM64 °FPassing clouds.15 mph68%30.01 "HgN/A
4:46 AM64 °FPassing clouds.13 mph64%30.04 "HgN/A
4:20 AM63 °FPartly cloudy.12 mph68%30.04 "HgN/A
3:20 AM63 °FPartly cloudy.12 mph68%30.07 "HgN/A
2:20 AM63 °FPassing clouds.14 mph64%30.07 "HgN/A
1:20 AM63 °FPassing clouds.12 mph64%30.09 "HgN/A
Weather by CustomWeather, © 2016

See weather overviewHow to use our weather pages